Location: Milton Keynes
(52.0316°N, 0.7531°W)
Time: 10:57:41
(UTC+00:00)

GENESIS II - Pass Details

Date: 29 January 2019
Orbit: 487 x 544 km, 64.5° (Epoch: 21 February)

Event Time Altitude Azimuth Distance (km) Brightness Sun altitude
Rises 06:43:23 0° 219° (SW) 2,619 7.6 -10.0°
Reaches altitude 10° 06:45:32 10° 218° (SW) 1,746 6.7 -9.7°
Maximum altitude 06:49:27 82° 131° (SE) 537 4.3 -9.1°
Drops below altitude 10° 06:53:28 10° 45° (NE) 1,791 7.3 -8.5°
Sets 06:55:41 0° 44° (NE) 2,694 8.2 -8.2°
